Location: Unspecified
(52.4292°N, 19.3359°E)
Time: 01:04:35
(UTC+02:00)

Vanguard 1 Rocket - Pass Details

Date: 23 May 2024
Orbit: 649 x 4221 km, 34.3° (Epoch: 13 June)

Event Time Altitude Azimuth Distance (km) Brightness Sun altitude
Rises 15:14:54 0° 265° (W) 5,674 12.1 46.4°
Reaches altitude 10° 15:22:52 10° 235° (SW) 3,649 11.5 45.4°
Maximum altitude 15:24:48 11° 222° (SW) 3,335 11.3 45.1°
Drops below altitude 10° 15:26:33 10° 209° (SSW) 3,178 11.0 44.9°
Sets 15:31:33 0° 172° (S) 3,543 10.6 44.2°
